RYR5XB EIDW-EGHQ

Flight info

Callsign RYR5XB
Flight time 0h 37m
Altitude 23000
Route PESIT BAKUR N24 GUBJE TIKCA
Aircraft B738/M-V/N

Departure

Time 2026-05-04 19:42
Airport Dublin Airport (EIDW)

Arrival

Time 2026-05-04 20:19
Airport Cornwall Airport Newquay (EGHQ)
Time Latitude Longitude Altitude Speed Heading
2026-05-04 19:31 53.43101 -6.24730 211 ft 0 kts 185°
2026-05-04 19:33 53.43102 -6.24730 211 ft 0 kts 186°
2026-05-04 19:33 53.43113 -6.24734 210 ft 2 kts 156°
2026-05-04 19:33 53.43125 -6.24744 210 ft 2 kts 152°
2026-05-04 19:34 53.43129 -6.24747 210 ft 2 kts 152°
2026-05-04 19:34 53.43139 -6.24756 210 ft 1 kts 149°
2026-05-04 19:34 53.43151 -6.24760 209 ft 2 kts 193°
2026-05-04 19:34 53.43165 -6.24756 209 ft 2 kts 183°
2026-05-04 19:35 53.43166 -6.24756 209 ft 2 kts 182°
2026-05-04 19:35 53.43177 -6.24754 209 ft 1 kts 174°
2026-05-04 19:35 53.43186 -6.24763 209 ft 1 kts 112°
2026-05-04 19:35 53.43187 -6.24784 208 ft 1 kts 86°
2026-05-04 19:36 53.43186 -6.24790 208 ft 0 kts 91°
2026-05-04 19:38 53.43186 -6.24788 208 ft 1 kts 91°
2026-05-04 19:38 53.43187 -6.24745 209 ft 2 kts 89°
2026-05-04 19:39 53.43189 -6.24706 210 ft 5 kts 76°
2026-05-04 19:39 53.43196 -6.24613 211 ft 8 kts 93°
2026-05-04 19:39 53.43193 -6.24530 213 ft 6 kts 94°
2026-05-04 19:39 53.43213 -6.24435 216 ft 11 kts 33°
2026-05-04 19:40 53.43289 -6.24403 215 ft 8 kts
2026-05-04 19:40 53.43346 -6.24448 212 ft 10 kts 287°
2026-05-04 19:40 53.43369 -6.24539 210 ft 9 kts 322°
2026-05-04 19:40 53.43434 -6.24558 210 ft 9 kts
2026-05-04 19:41 53.43497 -6.24549 210 ft 6 kts
2026-05-04 19:41 53.43528 -6.24593 209 ft 11 kts 284°
2026-05-04 19:41 53.43550 -6.25050 208 ft 82 kts 276°
2026-05-04 19:41 53.43628 -6.26488 239 ft 160 kts 275°
2026-05-04 19:42 53.43713 -6.28298 1174 ft 161 kts 276°
2026-05-04 19:42 53.43984 -6.30192 1835 ft 184 kts 300°
2026-05-04 19:42 53.44791 -6.31944 2534 ft 199 kts 315°
2026-05-04 19:42 53.45780 -6.33662 3208 ft 214 kts 315°
2026-05-04 19:43 53.46759 -6.35541 4197 ft 215 kts 310°
2026-05-04 19:43 53.47644 -6.37519 5148 ft 216 kts 307°
2026-05-04 19:43 53.48497 -6.39544 6023 ft 219 kts 306°
2026-05-04 19:43 53.49359 -6.41614 6899 ft 221 kts 305°
2026-05-04 19:44 53.50251 -6.43742 7688 ft 226 kts 306°
2026-05-04 19:44 53.51073 -6.45948 8450 ft 231 kts 292°
2026-05-04 19:44 53.51218 -6.48662 9178 ft 245 kts 261°
2026-05-04 19:44 53.50470 -6.51304 9804 ft 264 kts 232°
2026-05-04 19:45 53.49029 -6.53245 10621 ft 274 kts 209°
2026-05-04 19:45 53.47134 -6.54061 11203 ft 293 kts 180°
2026-05-04 19:45 53.45126 -6.53400 11934 ft 303 kts 162°
2026-05-04 19:45 53.43115 -6.52126 12621 ft 316 kts 159°
2026-05-04 19:46 53.41034 -6.50777 13189 ft 331 kts 160°
2026-05-04 19:46 53.38833 -6.49467 13737 ft 346 kts 161°
2026-05-04 19:46 53.36537 -6.48207 14572 ft 352 kts 162°
2026-05-04 19:46 53.34182 -6.46968 15451 ft 355 kts 162°
2026-05-04 19:47 53.31842 -6.45723 16251 ft 360 kts 161°
2026-05-04 19:47 53.29448 -6.44360 16972 ft 368 kts 160°
2026-05-04 19:47 53.26991 -6.42920 17414 ft 383 kts 160°
2026-05-04 19:47 53.24455 -6.41427 17912 ft 395 kts 160°
2026-05-04 19:48 53.21847 -6.39905 18698 ft 399 kts 160°
2026-05-04 19:48 53.19225 -6.38390 19448 ft 403 kts 160°
2026-05-04 19:48 53.16557 -6.36858 20168 ft 408 kts 160°
2026-05-04 19:48 53.13898 -6.35339 20897 ft 412 kts 160°
2026-05-04 19:49 53.11155 -6.33775 21576 ft 417 kts 160°
2026-05-04 19:49 53.08411 -6.32214 22248 ft 420 kts 159°
2026-05-04 19:49 53.05649 -6.30645 22850 ft 424 kts 159°
2026-05-04 19:49 53.02845 -6.29054 23058 ft 428 kts 159°
2026-05-04 19:50 53.00040 -6.27466 23070 ft 426 kts 159°
2026-05-04 19:50 52.97259 -6.25893 23077 ft 425 kts 159°
2026-05-04 19:50 52.94457 -6.24310 23080 ft 426 kts 159°
2026-05-04 19:50 52.91673 -6.22738 23076 ft 425 kts 159°
2026-05-04 19:51 52.88881 -6.21165 23077 ft 424 kts 159°
2026-05-04 19:51 52.86089 -6.19592 23078 ft 425 kts 159°
2026-05-04 19:51 52.83302 -6.18024 23083 ft 425 kts 159°
2026-05-04 19:51 52.80518 -6.16460 23082 ft 425 kts 159°
2026-05-04 19:52 52.77723 -6.14891 23080 ft 424 kts 159°
2026-05-04 19:52 52.74915 -6.13318 23080 ft 424 kts 159°
2026-05-04 19:52 52.72129 -6.11759 23077 ft 425 kts 159°
2026-05-04 19:52 52.69364 -6.10215 23071 ft 424 kts 159°
2026-05-04 19:53 52.66553 -6.08646 23069 ft 424 kts 159°
2026-05-04 19:53 52.63759 -6.07090 23068 ft 424 kts 159°
2026-05-04 19:53 52.60973 -6.05541 23071 ft 424 kts 159°
2026-05-04 19:53 52.58210 -6.04006 23077 ft 424 kts 159°
2026-05-04 19:54 52.55411 -6.02453 23074 ft 423 kts 159°
2026-05-04 19:54 52.52621 -6.00907 23076 ft 423 kts 158°
2026-05-04 19:54 52.49849 -5.99373 23070 ft 423 kts 159°
2026-05-04 19:54 52.47075 -5.97839 23077 ft 423 kts 159°
2026-05-04 19:55 52.44284 -5.96298 23067 ft 423 kts 159°
2026-05-04 19:55 52.41524 -5.94777 23073 ft 422 kts 158°
2026-05-04 19:55 52.38720 -5.93234 23065 ft 422 kts 158°
2026-05-04 19:55 52.35940 -5.91706 23065 ft 422 kts 159°
2026-05-04 19:56 52.33193 -5.90198 23061 ft 420 kts 159°
2026-05-04 19:56 52.30412 -5.88673 23057 ft 421 kts 158°
2026-05-04 19:56 52.27665 -5.87169 23062 ft 421 kts 158°
2026-05-04 19:56 52.24891 -5.85652 23059 ft 420 kts 158°
2026-05-04 19:57 52.22120 -5.84140 23055 ft 419 kts 158°
2026-05-04 19:57 52.19370 -5.82640 23058 ft 419 kts 158°
2026-05-04 19:57 52.16604 -5.81133 23055 ft 419 kts 158°
2026-05-04 19:57 52.13831 -5.79625 23053 ft 418 kts 158°
2026-05-04 19:58 52.11083 -5.78131 23055 ft 419 kts 158°
2026-05-04 19:58 52.08314 -5.76628 23060 ft 419 kts 158°
2026-05-04 19:58 52.05583 -5.75150 23053 ft 416 kts 158°
2026-05-04 19:58 52.02842 -5.73667 23056 ft 416 kts 158°
2026-05-04 19:59 52.00083 -5.72177 23052 ft 416 kts 158°
2026-05-04 19:59 51.97367 -5.70710 23056 ft 415 kts 158°
2026-05-04 19:59 51.94617 -5.69228 23053 ft 415 kts 158°
2026-05-04 19:59 51.91880 -5.67753 23060 ft 415 kts 158°
2026-05-04 20:00 51.89170 -5.66296 23062 ft 414 kts 159°
2026-05-04 20:00 51.86424 -5.64821 23058 ft 414 kts 159°
2026-05-04 20:00 51.83676 -5.63348 23061 ft 413 kts 159°
2026-05-04 20:00 51.80985 -5.61907 23056 ft 412 kts 159°
2026-05-04 20:01 51.78247 -5.60443 23060 ft 411 kts 159°
2026-05-04 20:01 51.75536 -5.58995 23058 ft 410 kts 159°
2026-05-04 20:01 51.72853 -5.57568 23056 ft 410 kts 159°
2026-05-04 20:01 51.70111 -5.56317 23054 ft 410 kts 163°
2026-05-04 20:02 51.67323 -5.55308 23055 ft 411 kts 165°
2026-05-04 20:02 51.64540 -5.54418 23057 ft 410 kts 166°
2026-05-04 20:02 51.61727 -5.53551 23052 ft 410 kts 166°
2026-05-04 20:02 51.58944 -5.52690 23052 ft 409 kts 166°
2026-05-04 20:03 51.56153 -5.51813 23050 ft 408 kts 166°
2026-05-04 20:03 51.53390 -5.50930 23005 ft 409 kts 166°
2026-05-04 20:03 51.50602 -5.50026 22755 ft 408 kts 166°
2026-05-04 20:03 51.47844 -5.49122 22496 ft 404 kts 166°
2026-05-04 20:04 51.45139 -5.48231 22182 ft 394 kts 166°
2026-05-04 20:04 51.42492 -5.47358 21661 ft 380 kts 166°
2026-05-04 20:04 51.39962 -5.46521 21166 ft 367 kts 166°
2026-05-04 20:04 51.37477 -5.45697 20703 ft 362 kts 166°
2026-05-04 20:05 51.35047 -5.44889 20234 ft 357 kts 166°
2026-05-04 20:05 51.32639 -5.44087 19766 ft 352 kts 166°
2026-05-04 20:05 51.30250 -5.43293 19300 ft 349 kts 166°
2026-05-04 20:05 51.27871 -5.42503 18825 ft 346 kts 166°
2026-05-04 20:06 51.25499 -5.41716 18358 ft 344 kts 166°
2026-05-04 20:06 51.23169 -5.40944 17907 ft 343 kts 166°
2026-05-04 20:06 51.20855 -5.40178 17450 ft 342 kts 167°
2026-05-04 20:06 51.18549 -5.39416 16989 ft 339 kts 167°
2026-05-04 20:07 51.16989 -5.38902 16678 ft 337 kts 166°
2026-05-04 20:07 51.14823 -5.38188 16241 ft 335 kts 166°
2026-05-04 20:07 51.12585 -5.37450 15795 ft 333 kts 166°
2026-05-04 20:07 51.10316 -5.36704 15336 ft 331 kts 166°
2026-05-04 20:08 51.08061 -5.35963 14877 ft 329 kts 166°
2026-05-04 20:08 51.05853 -5.35261 14426 ft 327 kts 168°
2026-05-04 20:08 51.03596 -5.34941 13969 ft 324 kts 177°
2026-05-04 20:08 51.01347 -5.34916 13519 ft 322 kts 179°
2026-05-04 20:09 50.99139 -5.34959 13078 ft 319 kts 180°
2026-05-04 20:09 50.96931 -5.35009 12621 ft 317 kts 179°
2026-05-04 20:09 50.94723 -5.35058 12168 ft 314 kts 179°
2026-05-04 20:09 50.92573 -5.35107 11727 ft 312 kts 180°
2026-05-04 20:10 50.90404 -5.35157 11272 ft 310 kts 180°
2026-05-04 20:10 50.88244 -5.35209 10817 ft 308 kts 180°
2026-05-04 20:10 50.86122 -5.35236 10366 ft 306 kts 178°
2026-05-04 20:10 50.84019 -5.35100 9917 ft 304 kts 175°
2026-05-04 20:11 50.81900 -5.34876 9456 ft 302 kts 174°
2026-05-04 20:11 50.79836 -5.34644 9061 ft 292 kts 174°
2026-05-04 20:11 50.77852 -5.34418 8707 ft 282 kts 174°
2026-05-04 20:11 50.75942 -5.34203 8355 ft 274 kts 174°
2026-05-04 20:12 50.74069 -5.33994 8011 ft 268 kts 174°
2026-05-04 20:12 50.72219 -5.33787 7655 ft 267 kts 174°
2026-05-04 20:12 50.70365 -5.33580 7296 ft 266 kts 175°
2026-05-04 20:12 50.68527 -5.33373 7006 ft 261 kts 174°
2026-05-04 20:13 50.66757 -5.33078 6754 ft 256 kts 171°
2026-05-04 20:13 50.65010 -5.32665 6501 ft 254 kts 169°
2026-05-04 20:13 50.63254 -5.32206 6246 ft 253 kts 167°
2026-05-04 20:13 50.61558 -5.31624 6000 ft 252 kts 165°
2026-05-04 20:14 50.59849 -5.30986 5732 ft 250 kts 164°
2026-05-04 20:14 50.58158 -5.30353 5393 ft 248 kts 165°
2026-05-04 20:14 50.56485 -5.29731 4989 ft 247 kts 165°
2026-05-04 20:14 50.54930 -5.28826 4578 ft 236 kts 145°
2026-05-04 20:15 50.53875 -5.26989 4136 ft 224 kts 113°
2026-05-04 20:15 50.53349 -5.24731 3787 ft 217 kts 108°
2026-05-04 20:15 50.52714 -5.22635 3506 ft 208 kts 116°
2026-05-04 20:15 50.52013 -5.20714 3209 ft 201 kts 117°
2026-05-04 20:16 50.51323 -5.18852 2928 ft 193 kts 117°
2026-05-04 20:16 50.50658 -5.17063 2661 ft 186 kts 117°
2026-05-04 20:16 50.50015 -5.15342 2414 ft 178 kts 117°
2026-05-04 20:16 50.49410 -5.13733 2156 ft 166 kts 116°
2026-05-04 20:17 50.48843 -5.12223 1960 ft 155 kts 116°
2026-05-04 20:17 50.48300 -5.10770 1731 ft 153 kts 116°
2026-05-04 20:17 50.47767 -5.09352 1524 ft 147 kts 116°
2026-05-04 20:17 50.47255 -5.07989 1315 ft 146 kts 116°
2026-05-04 20:18 50.46745 -5.06608 1142 ft 145 kts 117°
2026-05-04 20:18 50.46234 -5.05252 916 ft 143 kts 118°
2026-05-04 20:18 50.45726 -5.03935 680 ft 140 kts 117°
2026-05-04 20:18 50.45236 -5.02620 502 ft 139 kts 118°
2026-05-04 20:19 50.44754 -5.01344 356 ft 134 kts 118°
2026-05-04 20:19 50.44344 -5.00250 325 ft 78 kts 120°
2026-05-04 20:19 50.44144 -4.99725 349 ft 33 kts 121°
2026-05-04 20:19 50.44087 -4.99528 353 ft 10 kts 65°
2026-05-04 20:20 50.44171 -4.99490 353 ft 14 kts
2026-05-04 20:20 50.44260 -4.99502 351 ft 10 kts 325°
2026-05-04 20:20 50.44309 -4.99617 348 ft 16 kts 300°
2026-05-04 20:20 50.44393 -4.99834 342 ft 29 kts 301°
2026-05-04 20:21 50.44485 -5.00079 329 ft 26 kts 301°
2026-05-04 20:21 50.44574 -5.00318 322 ft 17 kts 300°
2026-05-04 20:21 50.44652 -5.00517 317 ft 3 kts 330°
2026-05-04 20:22 50.44665 -5.00515 317 ft 2 kts 33°
2026-05-04 20:22 50.44673 -5.00494 317 ft 1 kts 66°
2026-05-04 20:22 50.44676 -5.00481 318 ft 0 kts 74°
2026-05-04 20:22 50.44677 -5.00478 318 ft 0 kts 74°